CW9009 Weather Reports


Display with metric or nautical units.
time (UTC)temp
F
wind
direction
speed
MPH
gust
MPH
rain 1hr
in
rain 24hr
in
rain mn
in
humidity
%
barometer
mb
20260507005421 82 126 1.0 1.0 0.00 0.00 0.00 22 1012.5
20260507004502 83 259 1.0 1.0 0.00 0.00 0.00 20 1012.7
20260507003441 84 306 1.0 2.0 0.00 0.00 0.00 20 1012.6
20260507002422 83 161 1.0 1.0 0.00 0.00 0.00 20 1012.8
20260507001422 83 295 1.0 1.0 0.00 0.00 0.00 22 1012.7
20260507000442 83 293 1.0 1.0 0.00 0.00 0.00 22 1012.7
20260506235422 82 221 1.0 1.0 0.00 0.00 0.00 20 1012.8
20260506234422 83 126 1.0 3.0 0.00 0.00 0.00 22 1013.1
20260506233423 82 320 0.0 0.0 0.00 0.00 0.00 20 1013.2
20260506232417 82 290 1.0 1.0 0.00 0.00 0.00 22 1013.4
20260506231417 82 269 1.0 1.0 0.00 0.00 0.00 22 1013.4
20260506230417 82 265 1.0 1.0 0.00 0.00 0.00 24 1013.7
20260506225417 82 239 0.0 1.0 0.00 0.00 0.00 22 1013.9
20260506224417 81 282 1.0 2.0 0.00 0.00 0.00 22 1014.3
20260506223417 81 266 0.0 1.0 0.00 0.00 0.00 22 1014.5
20260506222424 80 283 0.0 1.0 0.00 0.00 0.00 22 1014.6
20260506221438 80 230 1.0 2.0 0.00 0.00 0.00 22 1014.8
20260506220418 80 286 0.0 1.0 0.00 0.00 0.00 20 1015.0
20260506215419 80 355 0.0 1.0 0.00 0.00 0.00 24 1015.2
20260506214418 78 266 0.0 1.0 0.00 0.00 0.00 20 1015.4
20260506213419 78 269 1.0 1.0 0.00 0.00 0.00 24 1015.7
20260506212419 77 255 1.0 2.0 0.00 0.00 0.00 24 1015.8
20260506211419 77 275 2.0 2.0 0.00 0.00 0.00 25 1015.9
20260506210420 76 268 0.0 1.0 0.00 0.00 0.00 24 1016.0
20260506205419 76 264 1.0 1.0 0.00 0.00 0.00 24 1016.1
20260506204440 75 255 1.0 1.0 0.00 0.00 0.00 22 1016.2
20260506203420 75 266 1.0 1.0 0.00 0.00 0.00 24 1016.3
20260506202420 74 270 1.0 1.0 0.00 0.00 0.00 24 1016.4
20260506201420 74 246 0.0 1.0 0.00 0.00 0.00 26 1016.5
20260506200420 74 254 2.0 3.0 0.00 0.00 0.00 25 1016.6
20260506195421 73 36 1.0 1.0 0.00 0.00 0.00 25 1016.7
20260506194421 73 254 2.0 3.0 0.00 0.00 0.00 24 1016.9
20260506193421 72 1 1.0 2.0 0.00 0.00 0.00 28 1017.0
20260506192421 72 318 1.0 1.0 0.00 0.00 0.00 26 1017.2
20260506191442 71 264 1.0 3.0 0.00 0.00 0.00 26 1017.5
20260506190421 71 120 1.0 3.0 0.00 0.00 0.00 28 1017.6
20260506185421 69 55 1.0 2.0 0.00 0.00 0.00 25 1017.7
20260506184422 69 295 1.0 1.0 0.00 0.00 0.00 30 1017.8
20260506183422 69 290 0.0 1.0 0.00 0.00 0.00 30 1017.9
20260506182422 68 282 2.0 3.0 0.00 0.00 0.00 28 1017.9
20260506181423 67 209 3.0 4.0 0.00 0.00 0.00 28 1018.2
20260506180443 66 302 1.0 3.0 0.00 0.00 0.00 30 1018.2
20260506175423 65 155 3.0 4.0 0.00 0.00 0.00 28 1018.3
20260506174443 65 121 3.0 5.0 0.00 0.00 0.00 30 1018.3
20260506173423 64 186 3.0 5.0 0.00 0.00 0.00 30 1018.4
20260506172423 63 94 3.0 4.0 0.00 0.00 0.00 28 1018.4
20260506171444 62 112 2.0 5.0 0.00 0.00 0.00 30 1018.4
20260506170423 62 117 4.0 5.0 0.00 0.00 0.00 30 1018.5
20260506165424 61 158 4.0 5.0 0.00 0.00 0.00 30 1018.5
20260506164424 60 90 2.0 2.0 0.00 0.00 0.00 31 1018.6
20260506163424 59 67 2.0 4.0 0.00 0.00 0.00 31 1018.6
20260506162424 59 132 4.0 6.0 0.00 0.00 0.00 32 1018.6
20260506161424 58 85 4.0 5.0 0.00 0.00 0.00 34 1018.6
20260506160425 57 247 2.0 3.0 0.00 0.00 0.00 34 1018.7
20260506155445 57 203 2.0 4.0 0.00 0.00 0.00 34 1018.6
20260506154445 56 112 4.0 5.0 0.00 0.00 0.00 34 1018.8
20260506153425 55 60 3.0 4.0 0.00 0.00 0.00 34 1018.8
20260506152425 55 112 3.0 4.0 0.00 0.00 0.00 37 1018.9
20260506151425 54 109 3.0 5.0 0.00 0.00 0.00 37 1018.8
20260506150426 53 99 2.0 3.0 0.00 0.00 0.00 38 1018.8
20260506145425 53 135 2.0 3.0 0.00 0.00 0.00 40 1018.8
20260506144446 52 105 3.0 4.0 0.00 0.00 0.00 41 1018.7
20260506143427 51 62 3.0 5.0 0.00 0.00 0.00 43 1018.7
20260506142427 50 97 3.0 4.0 0.00 0.00 0.00 44 1018.6
20260506141427 50 84 3.0 5.0 0.00 0.00 0.00 46 1018.5
20260506140427 49 166 2.0 3.0 0.00 0.00 0.00 46 1018.6
20260506135447 49 171 3.0 5.0 0.00 0.00 0.00 47 1018.5
20260506134447 49 55 2.0 5.0 0.00 0.00 0.00 47 1018.4
20260506133427 48 92 3.0 7.0 0.00 0.00 0.00 46 1018.3
20260506132427 48 150 2.0 2.0 0.00 0.00 0.00 46 1018.3
20260506131508 48 80 2.0 3.0 0.00 0.00 0.00 46 1018.0
20260506130427 48 174 1.0 1.0 0.00 0.00 0.00 46 1017.8
20260506125448 48 54 2.0 3.0 0.00 0.00 0.00 46 1017.8
20260506124428 49 150 2.0 2.0 0.00 0.00 0.00 46 1017.7
20260506123428 49 61 2.0 4.0 0.00 0.00 0.00 44 1017.7
20260506122428 49 69 2.0 3.0 0.00 0.00 0.00 44 1017.5
20260506121428 49 183 2.0 3.0 0.00 0.00 0.00 44 1017.5
20260506120429 50 85 2.0 3.0 0.00 0.00 0.00 44 1017.6
20260506115449 50 88 2.0 3.0 0.00 0.00 0.00 44 1017.4
20260506114429 50 124 1.0 2.0 0.00 0.00 0.00 44 1017.2
20260506113429 50 118 1.0 2.0 0.00 0.00 0.00 44 1017.2
20260506112429 51 149 2.0 3.0 0.00 0.00 0.00 43 1017.2
20260506111430 51 159 2.0 2.0 0.00 0.00 0.00 43 1017.2
20260506110430 51 55 1.0 1.0 0.00 0.00 0.00 43 1017.0
20260506105430 51 66 2.0 3.0 0.00 0.00 0.00 43 1017.0
20260506104430 52 63 3.0 3.0 0.00 0.00 0.00 43 1016.7
20260506103450 52 96 2.0 4.0 0.00 0.00 0.00 41 1016.5
20260506102430 52 53 2.0 3.0 0.00 0.00 0.00 41 1016.3
20260506101431 52 52 3.0 7.0 0.00 0.00 0.00 41 1016.1
20260506100431 52 86 4.0 5.0 0.00 0.00 0.00 41 1016.0
20260506095431 53 81 4.0 7.0 0.00 0.00 0.00 41 1015.9
20260506094431 53 131 3.0 5.0 0.00 0.00 0.00 41 1015.7
20260506093431 54 72 4.0 5.0 0.00 0.00 0.00 40 1015.7
20260506092431 54 64 4.0 4.0 0.00 0.00 0.00 40 1015.6
20260506091417 55 57 4.0 6.0 0.00 0.00 0.00 38 1015.3
20260506090417 55 90 3.0 5.0 0.00 0.00 0.00 38 1015.0
20260506085417 56 168 3.0 5.0 0.00 0.00 0.00 40 1014.9
20260506084417 56 128 6.0 8.0 0.00 0.00 0.00 41 1014.6
20260506083433 57 98 2.0 3.0 0.00 0.00 0.00 47 1014.3
20260506082432 58 108 1.0 1.0 0.00 0.00 0.00 47 1013.4
20260506081433 58 63 0.0 1.0 0.00 0.00 0.00 47 1013.2
20260506080433 59 0.0 0.0 0.00 0.00 0.00 46 1013.0
20260506073418 60 93 1.0 1.0 0.00 0.00 0.00 43 1012.1
20260506072418 60 280 0.0 1.0 0.00 0.00 0.00 41 1012.1
20260506071438 60 140 1.0 1.0 0.00 0.00 0.00 41 1012.0
20260506070419 60 0.0 0.0 0.00 0.00 0.00 41 1012.0
20260506062420 62 103 1.0 1.0 0.00 0.00 0.00 38 1011.2
20260506061419 63 278 0.0 0.0 0.00 0.00 0.00 37 1011.0
20260506060420 63 0.0 0.0 0.00 0.00 0.00 36 1010.9
20260506050421 66 0 0.0 0.0 0.00 0.00 0.00 30 1009.7
20260506044422 68 298 1.0 2.0 0.00 0.00 0.00 30 1009.4
20260506043441 68 295 2.0 2.0 0.00 0.00 0.00 28 1009.4
20260506042422 69 292 2.0 2.0 0.00 0.00 0.00 28 1009.3
20260506041422 69 310 1.0 2.0 0.00 0.00 0.00 26 1009.1
20260506040442 70 293 1.0 1.0 0.00 0.00 0.00 25 1009.0
20260506035422 70 0 0.0 0.0 0.00 0.00 0.00 24 1008.7
20260506034422 71 295 1.0 2.0 0.00 0.00 0.00 24 1008.6
20260506033423 71 0 0.0 0.0 0.00 0.00 0.00 25 1008.4
20260506032423 72 305 1.0 2.0 0.00 0.00 0.00 24 1008.2
20260506031423 73 336 1.0 2.0 0.00 0.00 0.00 24 1008.0
20260506030417 73 299 2.0 2.0 0.00 0.00 0.00 24 1007.7
20260506025417 74 313 1.0 2.0 0.00 0.00 0.00 22 1007.4
20260506024418 75 303 1.0 2.0 0.00 0.00 0.00 20 1007.3
20260506023418 76 303 1.0 2.0 0.00 0.00 0.00 20 1007.2
20260506022418 76 288 2.0 2.0 0.00 0.00 0.00 19 1007.1
20260506021418 77 306 1.0 1.0 0.00 0.00 0.00 19 1006.9
20260506020419 78 0 0.0 0.0 0.00 0.00 0.00 18 1006.7
20260506015419 79 284 2.0 4.0 0.00 0.00 0.00 18 1006.7
20260506014439 80 334 1.0 1.0 0.00 0.00 0.00 18 1006.6
20260506013419 80 6 1.0 2.0 0.00 0.00 0.00 18 1006.7
20260506012419 80 310 1.0 2.0 0.00 0.00 0.00 18 1006.6
20260506011419 80 304 2.0 2.0 0.00 0.00 0.00 18 1006.5
20260506010420 80 287 2.0 3.0 0.00 0.00 0.00 18 1006.5